Meteopurmerend
purmerend
Purmerend - Baaienwijk



My webcam  My webcam


waarschuwing voor Onweer Meer informatie blitzortung!


Regen radar Meer informatie rain snow radar


Bezoek onze andere website:

CandyAppleRed WebdesignWebdesign Purmerend Candy Apple Red

MeteopurmerendBlog

Template documentation
and downloads



Onweer van: 26-07-2021 13:00 tot: 21:00 waarschuwing voor: Onweer niveau: Geel info button
Enkele onweersbuien, lokaal met hagel en veel neerslag in korte tijd.Kans op blikseminslag, hagel en veel neerslag in korte tijd.Verkeer en buitenactiviteiten kunnen hinder ondervinden.Mijd open water en open gebied, schuil niet onder bomen.Volg weerberichten en waarschuwingen.

15 daagse weersverwachting Næstved (DK)

  • Overzicht
  • Per uur
  • 15 dagen
  • Extra
  • Vergelijk
  • Kaarten
  • Dagkaart
  • Meer »
  • Info
  • Statistieken
  • Directe link
    Temp 6h Neerslag Wind  
 05:13     21:27    Daglengte: 16:14 Vandaag
20:00
23°
 
4
 05:15     21:25    Daglengte: 16:10 Morgen
02:00
19°
 
2
08:00
21°
 
3
14:00
23°
2.0 mm
5
20:00
21°
 
4
 05:17     21:23    Daglengte: 16:06 Woensdag 28 Jul
02:00
17°
 
2
08:00
19°
 
4
14:00
21°
5.1 mm
6
20:00
19°
16.4 mm
4
warningclass
 05:18     21:22    Daglengte: 16:04 Donderdag 29 Jul
02:00
17°
17.0 mm
6
warningclass
08:00
17°
8.8 mm
6
warningclass
Locatie info
Region: Sjælland
Latitude: 55.2323°N
Longitude: 11.7555°E
16 masl
Postcode: 4700
Temp/Neerslag /Baro Onweer/Dauwpunt
    Temp Baro 1h Neerslag Dauwpunt Wind UV Bewolking  
 05:13     21:27    Daglengte: 16:14 Vandaag
16:00
25°
1010.7 hPa
25%
18.4°
4
Windvlaag: 2.9 m/s
60%
17:00
25°
1010.7 hPa
60%
18.0°
4
Windvlaag: 3.4 m/s
51%
18:00
25°
1010.5 hPa
59%
17.8°
4
Windvlaag: 3.1 m/s
33%
19:00
24°
1010.2 hPa
13%
17.3°
5
Windvlaag: 4.3 m/s
58%
20:00
23°
1010.4 hPa
65%
17.1°
4
Windvlaag: 4.6 m/s
66%
21:00
22°
1010.3 hPa
59%
17.2°
3
Windvlaag: 3.5 m/s
58%
22:00
21°
1010.3 hPa
12%
18.2°
3
Windvlaag: 3.7 m/s
48%
23:00
20°
1010.2 hPa
11%
18.3°
2
Windvlaag: 3.7 m/s
45%
 05:15     21:25    Daglengte: 16:10 Morgen
00:00
20°
1010.1 hPa
11%
18.4°
2
Windvlaag: 1.6 m/s
23%
01:00
19°
1009.8 hPa
11%
18.7°
2
Windvlaag: 1.2 m/s
16%
02:00
19°
1009.8 hPa
67%
18.6°
2
Windvlaag: -0.1 m/s
40%
03:00
19°
1009.6 hPa
33%
18.5°
2
Windvlaag: -0.3 m/s
45%
04:00
19°
1009.5 hPa
67%
18.4°
2
Windvlaag: -0.2 m/s
62% warningclass
05:00
19°
1009.1 hPa
70%
18.4°
2
Windvlaag: 0.4 m/s
57%
06:00
19°
1008.8 hPa
12%
18.5°
2
Windvlaag: 0.9 m/s
51%
07:00
19°
1008.9 hPa
23%
18.7°
2
Windvlaag: 2.6 m/s
46%
08:00
21°
1009.0 hPa
26%
19.0°
3
Windvlaag: 3.3 m/s
55%
09:00
21°
1009.3 hPa 0.2 mm
75%
18.8°
4
Windvlaag: 3.7 m/s
53% warningclass
10:00
22°
1009.6 hPa 1.3 mm
76%
17.3°
4
Windvlaag: 5 m/s
53% warningclass
11:00
21°
1009.7 hPa 0.5 mm
76%
14.9°
4
Windvlaag: 4.9 m/s
24% warningclass
12:00
23°
1009.6 hPa
26%
15.1°
4
Windvlaag: 4.6 m/s
15%
13:00
23°
1009.6 hPa
38%
14.4°
4
Windvlaag: 5.5 m/s
14%
14:00
23°
1009.5 hPa
22%
13.3°
5
Windvlaag: 6 m/s
6%
15:00
24°
1009.4 hPa
21%
14.4°
5
Windvlaag: 7.4 m/s
15%
16:00
24°
1009.4 hPa
33%
16.8°
5
Windvlaag: 7.4 m/s
10%
17:00
22°
1009.4 hPa
17%
18.7°
5
Windvlaag: 6.8 m/s
15%
18:00
22°
1009.1 hPa
15%
17.9°
4
Windvlaag: 6.5 m/s
18%
19:00
22°
1009.1 hPa
13%
16.8°
4
Windvlaag: 6.3 m/s
41%
20:00
21°
1009.1 hPa
13%
15.9°
4
Windvlaag: 6.4 m/s
42%
21:00
20°
1009.4 hPa
13%
16.3°
3
Windvlaag: 5.8 m/s
64%
22:00
19°
1009.6 hPa
13%
16.9°
3
Windvlaag: 5.8 m/s
35%
23:00
19°
1009.6 hPa
13%
17.6°
2
Windvlaag: 4.9 m/s
5%
 05:17     21:23    Daglengte: 16:06 Woensdag 28 Jul
00:00
18°
1009.4 hPa
13%
17.4°
2
Windvlaag: 3.8 m/s
3%
01:00
18°
1009.2 hPa
13%
17.0°
2
Windvlaag: 3.2 m/s
10%
02:00
17°
1008.9 hPa
13%
16.3°
2
Windvlaag: 2 m/s
20%
03:00
17°
1008.6 hPa
13%
16.4°
2
Windvlaag: 2.9 m/s
22%
04:00
17°
1008.4 hPa
14%
16.5°
2
Windvlaag: 4 m/s
66%
05:00
17°
1008.1 hPa
21%
17.0°
2
Windvlaag: 6.4 m/s
75%
06:00
17°
1008.0 hPa
18%
17.2°
2
Windvlaag: 5.8 m/s
61%
07:00
18°
1007.9 hPa
75%
17.7°
3
Windvlaag: 4.9 m/s
80%
08:00
19°
1007.8 hPa
82%
16.9°
4
Windvlaag: 6.1 m/s
74%
09:00
20°
1007.9 hPa
31%
16.2°
4
Windvlaag: 6.6 m/s
18%
10:00
20°
1007.8 hPa
32%
16.4°
5
Windvlaag: 8.4 m/s
33%
11:00
20°
1007.8 hPa 2.5 mm
91%
15.0°
6
Windvlaag: 8.8 m/s
74%
12:00
21°
1007.6 hPa
84%
15.4°
6
Windvlaag: 9 m/s
26%
13:00
21°
1007.3 hPa
29%
15.6°
6
Windvlaag: 8.7 m/s
38%
14:00
21°
1007.0 hPa 2.7 mm
79%
15.0°
6
Windvlaag: 8.7 m/s
43%
15:00
22°
1006.7 hPa 2.7 mm
86%
14.4°
6
Windvlaag: 8.5 m/s
64%
16:00
21°
1006.5 hPa 3.0 mm
95%
13.4°
5
Windvlaag: 8.6 m/s
51%
17:00
21°
1006.3 hPa 2.8 mm
100%
12.6°
5
Windvlaag: 8.3 m/s
33%
18:00
20°
1005.9 hPa 3.2 mm
98%
11.6°
5
Windvlaag: 8.2 m/s
51%
19:00
20°
1005.6 hPa 2.8 mm
100%
12.0°
5
Windvlaag: 7.1 m/s
69%
20:00
19°
1005.5 hPa 2.0 mm
100%
12.4°
4
Windvlaag: 6.9 m/s
79% warningclass
21:00
19°
1005.8 hPa 1.8 mm
100%
15.0°
5
Windvlaag: 7.4 m/s
97% warningclass
22:00
18°
1005.9 hPa 3.4 mm
84%
16.7°
5
Windvlaag: 7.1 m/s
78%
23:00
18°
1005.6 hPa 3.0 mm
34%
16.6°
6
Windvlaag: 7.8 m/s
70%
 05:18     21:22    Daglengte: 16:04 Donderdag 29 Jul
00:00
18°
1005.4 hPa 3.8 mm
79%
16.2°
5
Windvlaag: 7.8 m/s
81%
01:00
18°
1005.3 hPa 2.9 mm
84%
15.9°
5
Windvlaag: 6.9 m/s
88% warningclass
02:00
17°
1004.9 hPa 2.2 mm
87%
14.9°
6
Windvlaag: 7.1 m/s
63% warningclass
03:00
17°
1004.6 hPa
86%
14.3°
6
Windvlaag: 8.3 m/s
50%
04:00
16°
1004.5 hPa
84%
14.3°
6
Windvlaag: 8.6 m/s
53%
05:00
17°
1004.3 hPa
83%
14.4°
6
Windvlaag: 8.2 m/s
57%
06:00
17°
1004.0 hPa 2.8 mm
85%
13.7°
6
Windvlaag: 9.4 m/s
44%
07:00
17°
1003.7 hPa 2.9 mm
92%
13.5°
6
Windvlaag: 9.5 m/s
69%
08:00
17°
1003.5 hPa 3.1 mm
98%
12.6°
6
Windvlaag: 10.2 m/s
88% warningclass
09:00
16°
1002.2 hPa 3.2 mm
99%
12.1°
7
Windvlaag: 13.3 m/s
100% warningclass
10:00
16°
1002.1 hPa 3.4 mm
99%
11.2°
7
Windvlaag: 12.7 m/s
100% warningclass
11:00
17°
1002.4 hPa 3.6 mm
100%
11.0°
8
Windvlaag: 12.8 m/s
95% warningclass
12:00
17°
1002.4 hPa 3.5 mm
100%
9.1°
9
Windvlaag: 13.3 m/s
87%
13:00
17°
1002.4 hPa 3.5 mm
99%
6.6°
9
Windvlaag: 14.4 m/s
89%
14:00
17°
1002.5 hPa 3.7 mm
100%
8.8°
9
Windvlaag: 13.6 m/s
100% warningclass
Temp/Neerslag /Baro Onweer/Dauwpunt
    Temp Baro Neerslag Dauwpunt Wind Bewolking  
 05:13     21:27    Daglengte: 16:14 Vandaag
17:00
25°
1010.7 hPa   18.0°
4
51%
20:00
23°
1010.4 hPa   17.1°
4
66%
23:00
20°
1010.2 hPa   18.3°
2
45%
 05:15     21:25    Daglengte: 16:10 Morgen
02:00
19°
1009.8 hPa   18.6°
2
40%
05:00
19°
1009.1 hPa   18.4°
2
57%
08:00
21°
1009.0 hPa   19.0°
3
55%
11:00
21°
1009.7 hPa 2.0 mm 14.9°
4
24% warningclass
14:00
23°
1009.5 hPa   13.3°
5
6%
17:00
22°
1009.4 hPa   18.7°
5
15%
20:00
21°
1009.1 hPa   15.9°
4
42%
23:00
19°
1009.6 hPa   17.6°
2
5%
 05:17     21:23    Daglengte: 16:06 Woensdag 28 Jul
02:00
17°
1008.9 hPa   16.3°
2
20%
05:00
17°
1008.1 hPa   17.0°
2
75%
08:00
19°
1007.8 hPa   16.9°
4
74%
11:00
20°
1007.8 hPa 2.5 mm 15.0°
6
74%
14:00
21°
1007.0 hPa 2.7 mm 15.0°
6
43%
17:00
21°
1006.3 hPa 8.5 mm 12.6°
5
33%
20:00
19°
1005.5 hPa 7.9 mm 12.4°
4
79% warningclass
23:00
18°
1005.6 hPa 8.1 mm 16.6°
6
70%
 05:18     21:22    Daglengte: 16:04 Donderdag 29 Jul
02:00
17°
1004.9 hPa 8.8 mm 14.9°
6
63% warningclass
05:00
17°
1004.3 hPa   14.4°
6
57%
08:00
17°
1003.5 hPa 8.8 mm 12.6°
6
88% warningclass
11:00
17°
1002.4 hPa 10.2 mm 11.0°
8
95% warningclass
14:00
17°
1002.5 hPa 10.6 mm 8.8°
9
100% warningclass
17:00
16°
1002.7 hPa 11.5 mm 13.6°
14
1%
20:00
17°
1003.3 hPa 11.9 mm 12.4°
12
1%
23:00
16°
1003.1 hPa 12.3 mm 12.1°
11
0%
 05:20     21:20    Daglengte: 16:00 Vrijdag 30 Jul
02:00
16°
1001.5 hPa 14.2 mm 14.4°
11
1%
05:00
16°
1001.0 hPa 15.5 mm 13.7°
9
1%
08:00
17°
1002.0 hPa 15.6 mm 14.1°
9
1%
11:00
20°
1002.9 hPa 16.0 mm 14.0°
10
1%
14:00
20°
1003.1 hPa 16.5 mm 14.2°
10
1%
17:00
21°
1003.9 hPa 16.7 mm 13.1°
10
1%
20:00
18°
1004.5 hPa 16.7 mm 12.8°
9
0%
23:00
16°
1005.0 hPa 16.7 mm 12.4°
8
0%
 05:22     21:18    Daglengte: 15:56 Zaterdag 31 Jul
02:00
16°
1005.3 hPa 16.7 mm 14.1°
7
0%
05:00
15°
1004.4 hPa 16.8 mm 13.8°
6
1%
08:00
17°
1004.6 hPa 16.8 mm 13.4°
6
1%
11:00
19°
1004.4 hPa 16.9 mm 13.0°
6
1%
14:00
20°
1003.3 hPa 16.9 mm 13.5°
5
1%
17:00
18°
1002.2 hPa 18.9 mm 15.6°
7
1%
20:00
18°
1001.2 hPa 20.1 mm 14.5°
6
1%
23:00
15°
1000.8 hPa 20.2 mm 12.3°
3
0%
 05:24     21:16    Daglengte: 15:52 Zondag 01 Aug
02:00
15°
1000.5 hPa 21.6 mm 12.7°
4
1%
05:00
14°
1000.8 hPa 21.7 mm 12.8°
4
1%
08:00
15°
1002.1 hPa 21.7 mm 11.6°
6
1%
11:00
18°
1002.5 hPa 21.7 mm 10.6°
7
1%
14:00
19°
1002.9 hPa 21.9 mm 10.4°
7
1%
17:00
19°
1003.0 hPa 22.3 mm 10.2°
6
1%
20:00
17°
1003.2 hPa 22.4 mm 9.1°
6
1%
23:00
14°
1004.0 hPa 22.4 mm 8.8°
5
1%
 05:26     21:14    Daglengte: 15:48 Maandag 02 Aug
02:00
13°
1004.4 hPa 22.4 mm 9.4°
5
1%
05:00
13°
1004.4 hPa 22.4 mm 8.8°
7
0%
08:00
15°
1004.9 hPa 22.5 mm 9.4°
8
0%
11:00
17°
1005.9 hPa 22.7 mm 9.8°
9
1%
14:00
18°
1006.8 hPa 45.7 mm 9.4°
9
1%
20:00
16°
1008.4 hPa 46.3 mm 8.8°
9
1%
 05:27     21:12    Daglengte: 15:45 Dinsdag 03 Aug
02:00
14°
1010.5 hPa 46.5 mm 9.5°
6
0%
08:00
16°
1011.1 hPa 46.8 mm 10.4°
7
1%
14:00
18°
1011.3 hPa 47.5 mm 10.0°
7
1%
20:00
17°
1010.8 hPa 50.2 mm 11.3°
6
1%
 05:29     21:10    Daglengte: 15:41 Woensdag 04 Aug
02:00
14°
1011.6 hPa 50.7 mm 11.5°
4
0%
08:00
17°
1009.4 hPa 50.7 mm 13.1°
9
1%
14:00
20°
1007.5 hPa 51.3 mm 13.0°
10
1%
20:00
17°
1005.4 hPa 54.3 mm 15.3°
8
1%
 05:31     21:08    Daglengte: 15:37 Donderdag 05 Aug
02:00
16°
1003.9 hPa 60.1 mm 13.6°
8
1%
08:00
17°
1002.4 hPa 63.4 mm 13.5°
9
0%
14:00
20°
1009.6 hPa 0.8 mm 12.3°
4
72%
20:00
18°
1008.7 hPa 0.7 mm 12.8°
3
60%
 05:33     21:06    Daglengte: 15:33 Vrijdag 06 Aug
02:00
15°
1008.7 hPa 0.6 mm 12.4°
3
63%
08:00
16°
1008.1 hPa 0.6 mm 12.5°
3
66%
14:00
19°
1008.1 hPa 1.3 mm 11.8°
4
66%
20:00
18°
1007.9 hPa 0.8 mm 12.4°
4
62%
 05:35     21:04    Daglengte: 15:29 Zaterdag 07 Aug
02:00
15°
1008.5 hPa 0.4 mm 11.9°
3
54%
08:00
16°
1008.7 hPa 0.4 mm 12.1°
3
52%
14:00
20°
1009.0 hPa 0.9 mm 12.0°
4
59%
20:00
18°
1008.9 hPa 0.7 mm 12.4°
3
55%
 05:37     21:02    Daglengte: 15:25 Zondag 08 Aug
02:00
15°
1009.4 hPa 0.4 mm 12.1°
3
70%
08:00
16°
1009.3 hPa 0.7 mm 12.1°
3
69%
14:00
19°
1009.4 hPa 1.1 mm 12.3°
4
71%
20:00
18°
1009.4 hPa 1.4 mm 12.8°
3
67%
 05:38     20:59    Daglengte: 15:21 Maandag 09 Aug
02:00
15°
1010.2 hPa 1.7 mm 12.5°
3
61%
08:00
16°
1011.1 hPa   12.6°
4
64%
14:00
20°
1012.3 hPa 0.6 mm 12.3°
5
61%
20:00
18°
1012.7 hPa 0.5 mm 12.6°
4
56%
 05:40     20:57    Daglengte: 15:17 Dinsdag 10 Aug
02:00
15°
1013.4 hPa 0.3 mm 12.0°
4
54%
08:00
16°
1013.1 hPa 0.5 mm 12.3°
3
56%
14:00
20°
1013.5 hPa 0.7 mm 12.0°
5
57%
  CAPE Lifted Index Hail Supercell Tornado SRH 3km CL BTM PRES CL TOP PRES Swiss DWD icon SMHI TS
 05:13     21:27    Daglengte: 16:14 Vandaag
16:00 570 J/kg -2.5 K 0 % 0 % 0 % 0 m²/s² 0 0 -2.41 3
17:00 598 J/kg -2.6 K 0 % 0 % 0 % 0 m²/s² 0 0 -2.42 3
18:00 473 J/kg -2.1 K 0 % 0 % 0 % 0 m²/s² 0 0 -1.47 3
19:00 421 J/kg -1.7 K 0 % 0 % 0 % 0 m²/s² 0 0 -0.5 3
20:00 560 J/kg -2.4 K 0 % 0 % 0 % 0 m²/s² 0 0 -0.96 80
21:00 696 J/kg -2.6 K 0 % 0 % 0 % 0 m²/s² 0 0 -0.74 3
22:00 835 J/kg -3.1 K 0 % 0 % 0 % 0 m²/s² 0 0 -1.57 3
23:00 759 J/kg -2.8 K 0 % 0 % 0 % 0 m²/s² 0 0 -1.54 3
 05:15     21:25    Daglengte: 16:10 Morgen
00:00 699 J/kg -2.7 K 0 % 0 % 0 % 0 m²/s² 0 0 -1.5 2
01:00 566 J/kg -2.5 K 0 % 0 % 0 % 0 m²/s² 0 0 -0.64 2
02:00 661 J/kg -2.6 K 0 % 0 % 0 % 0 m²/s² 0 0 -1.22 3
03:00 676 J/kg -2.9 K 0 % 0 % 0 % 0 m²/s² 0 0 -1.13 3
04:00 807 J/kg -3.5 K 0 % 0 % 0 % 0 m²/s² 0 0 -1.52 95
05:00 868 J/kg -3.7 K 0 % 0 % 0 % 0 m²/s² 0 0 -1.93 80
06:00 879 J/kg -3.9 K 0 % 0 % 0 % 0 m²/s² 0 0 -1.53 45
07:00 883 J/kg -3.9 K 0 % 0 % 0 % 0 m²/s² 0 0 -1.8 3
08:00 1125 J/kg -4.8 K 0 % 0 % 0 % 0 m²/s² 0 0 -2.91 3
09:00 1317 J/kg -5.0 K 0 % 0 % 0 % 0 m²/s² 0 0 -2.84 80
10:00 1212 J/kg -5.0 K 0 % 0 % 0 % 0 m²/s² 0 0 -2.78 95
11:00 926 J/kg -4.0 K 0 % 0 % 0 % 0 m²/s² 0 0 -2.29 80
12:00 633 J/kg -3.1 K 0 % 0 % 0 % 0 m²/s² 0 0 -0.82 3
13:00 419 J/kg -2.2 K 0 % 0 % 0 % 0 m²/s² 0 0 0.08 2
14:00 272 J/kg -1.5 K 0 % 0 % 0 % 0 m²/s² 0 0 0.09 2
15:00 246 J/kg -1.3 K 0 % 0 % 0 % 0 m²/s² 0 0 0.17 2
16:00 215 J/kg -1.2 K 0 % 0 % 0 % 0 m²/s² 0 0 0.27 2
17:00 360 J/kg -1.6 K 0 % 0 % 0 % 0 m²/s² 0 0 0.05 2
18:00 493 J/kg -2.0 K 0 % 0 % 0 % 0 m²/s² 0 0 -0.23 2
19:00 491 J/kg -2.0 K 0 % 0 % 0 % 0 m²/s² 0 0 -0.05 3
20:00 476 J/kg -1.7 K 0 % 0 % 0 % 0 m²/s² 0 0 0.97 3
21:00 476 J/kg -1.4 K 0 % 0 % 0 % 0 m²/s² 0 0 1.84 3
22:00 395 J/kg -1.1 K 0 % 0 % 0 % 0 m²/s² 0 0 2.29 2
23:00 252 J/kg -0.3 K 0 % 0 % 0 % 0 m²/s² 0 0 2.67 2
 05:17     21:23    Daglengte: 16:06 Woensdag 28 Jul
00:00 69 J/kg 0.6 K 0 % 0 % 0 % 0 m²/s² 0 0 3.63 0
01:00 23 J/kg 0.9 K 0 % 0 % 0 % 0 m²/s² 0 0 3.33 0
02:00 22 J/kg 0.7 K 0 % 0 % 0 % 0 m²/s² 0 0 3.04 0
03:00 18 J/kg 0.4 K 0 % 0 % 0 % 0 m²/s² 0 0 1.54 2
04:00 149 J/kg 0.2 K 0 % 0 % 0 % 0 m²/s² 0 0 0.2 3
05:00 197 J/kg 0.0 K 0 % 0 % 0 % 0 m²/s² 0 0 0 3
06:00 92 J/kg 0.3 K 0 % 0 % 0 % 0 m²/s² 0 0 0.72 3
07:00 105 J/kg -0.1 K 0 % 0 % 0 % 0 m²/s² 0 0 0.11 3
08:00 51 J/kg -1.1 K 0 % 0 % 0 % 0 m²/s² 0 0 -0.62 3
09:00 491 J/kg -2.1 K 0 % 0 % 0 % 0 m²/s² 0 0 -1.68 2
10:00 322 J/kg -1.2 K 0 % 0 % 0 % 0 m²/s² 0 0 -0.3 3
11:00 259 J/kg -0.8 K 0 % 0 % 0 % 0 m²/s² 0 0 0.19 3
12:00 360 J/kg -1.2 K 0 % 0 % 0 % 0 m²/s² 0 0 -0.36 3
13:00 423 J/kg -1.6 K 0 % 0 % 0 % 0 m²/s² 0 0 -0.85 3
14:00 353 J/kg -1.3 K 0 % 0 % 0 % 0 m²/s² 0 0 -0.22 2
15:00 180 J/kg -0.2 K 0 % 0 % 0 % 0 m²/s² 0 0 1 2
16:00 241 J/kg -0.4 K 0 % 0 % 0 % 0 m²/s² 0 0 0.89 3
17:00 205 J/kg -0.4 K 0 % 0 % 0 % 0 m²/s² 0 0 1.88 2
18:00 240 J/kg -0.8 K 0 % 0 % 0 % 0 m²/s² 0 0 0.88 3
19:00 345 J/kg -1.4 K 0 % 0 % 0 % 0 m²/s² 0 0 0.55 80
20:00 533 J/kg -2.1 K 0 % 0 % 0 % 0 m²/s² 0 0 -0.3 95
21:00 635 J/kg -2.7 K 0 % 0 % 0 % 0 m²/s² 0 0 -2.7 3
22:00 682 J/kg -2.1 K 0 % 0 % 0 % 0 m²/s² 0 0 -0.12 3
23:00 773 J/kg -2.6 K 0 % 0 % 0 % 0 m²/s² 0 0 -0.05 2
 05:18     21:22    Daglengte: 16:04 Donderdag 29 Jul
00:00 813 J/kg -3.1 K 0 % 0 % 0 % 0 m²/s² 0 0 -1.6 3
01:00 930 J/kg -4.0 K 0 % 0 % 0 % 0 m²/s² 0 0 -3.22 3
02:00 713 J/kg -3.8 K 0 % 0 % 0 % 0 m²/s² 0 0 -2.51 95
03:00 423 J/kg -1.9 K 0 % 0 % 0 % 0 m²/s² 0 0 -0.82 3
04:00 232 J/kg -0.1 K 0 % 0 % 0 % 0 m²/s² 0 0 1.79 2
05:00 392 J/kg -0.7 K 0 % 0 % 0 % 0 m²/s² 0 0 4.31 3
06:00 276 J/kg 0.3 K 0 % 0 % 0 % 0 m²/s² 0 0 2.28 80
07:00 253 J/kg 0.8 K 0 % 0 % 0 % 0 m²/s² 0 0 1.52 80
08:00 245 J/kg 1.1 K 0 % 0 % 0 % 0 m²/s² 0 0 1.43 95
09:00 357 J/kg 0.9 K 0 % 0 % 0 % 0 m²/s² 0 0 1.44 95
10:00 332 J/kg 1.2 K 0 % 0 % 0 % 0 m²/s² 0 0 2.61 95
11:00 347 J/kg 1.3 K 0 % 0 % 0 % 0 m²/s² 0 0 3.13 95
12:00 205 J/kg 3.2 K 0 % 0 % 0 % 0 m²/s² 0 0 7.01 80
13:00 126 J/kg 4.6 K 0 % 0 % 0 % 0 m²/s² 0 0 9.16 80
14:00 298 J/kg 2.9 K 0 % 0 % 0 % 0 m²/s² 0 0 5.96 95
Temp Baro Wind Neerslag
  EWN Forecast EWN WRFDA DWD ICON FMI HIRLAM MET Norway GFS
 05:13     21:27    Daglengte: 16:14 Vandaag
17:00 24.6° 1010.7 hPa 4.4 m/s 0.0 mm 25.7° 1010.5 hPa 5.6 m/s 1.0 mm 24.7° 1010.7 hPa 4.3 m/s -1.8 mm 24.5° 1010.4 hPa 4.0 m/s 0.0 mm 21.2° 1010.7 hPa 3.9 m/s
20:00 22.7° 1010.4 hPa 3.9 m/s 0.0 mm 23.2° 1009.5 hPa 4.4 m/s 1.0 mm 21.6° 1010.7 hPa 3.3 m/s 0.3 mm 22.8° 1010.0 hPa 4.6 m/s 0.0 mm 21.4° 1010.0 hPa 5.4 m/s
23:00 20.0° 1010.2 hPa 2.3 m/s 0.0 mm 19.0° 1009.4 hPa 3.0 m/s 1.0 mm 19.5° 1010.4 hPa 2.2 m/s 0.0 mm 20.0° 1009.8 hPa 2.9 m/s 0.0 mm 18.3° 1010.0 hPa 3.3 m/s
 05:15     21:25    Daglengte: 16:10 Morgen
02:00 19.0° 1009.8 hPa 2.3 m/s 0.0 mm 17.2° 1008.8 hPa 2.3 m/s 1.0 mm 18.2° 1010.0 hPa 1.5 m/s 0.1 mm 19.3° 1009.0 hPa 3.2 m/s 0.0 mm 17.9° 1009.8 hPa 1.8 m/s
05:00 18.6° 1009.1 hPa 1.7 m/s 0.0 mm 16.7° 1008.1 hPa 2.1 m/s 1.0 mm 17.6° 1009.8 hPa 1.1 m/s 1.8 mm 19.0° 1007.9 hPa 2.6 m/s 0.0 mm 17.7° 1009.1 hPa 1.8 m/s
08:00 20.6° 1009.0 hPa 2.6 m/s 0.0 mm 20.5° 1007.8 hPa 2.1 m/s 1.0 mm 19.7° 1009.7 hPa 1.9 m/s 0.0 mm 20.6° 1008.3 hPa 3.4 m/s 0.0 mm 19.9° 1009.5 hPa 3.2 m/s
11:00 21.5° 1009.7 hPa 4.2 m/s 2.0 mm 23.6° 1008.2 hPa 4.4 m/s 1.0 mm 20.9° 1010.1 hPa 3.4 m/s 3.4 mm 23.4° 1008.8 hPa 4.3 m/s 0.0 mm 21.7° 1009.7 hPa 4.5 m/s
14:00 23.2° 1009.5 hPa 4.7 m/s 0.0 mm 24.8° 1008.6 hPa 4.2 m/s 1.0 mm 22.6° 1009.8 hPa 4.8 m/s 0.0 mm 25.1° 1008.7 hPa 4.7 m/s 0.0 mm 22.7° 1009.9 hPa 5.3 m/s
17:00 22.0° 1009.4 hPa 4.8 m/s 0.0 mm 24.1° 1008.2 hPa 5.0 m/s 1.0 mm 21.6° 1009.6 hPa 4.9 m/s 0.0 mm 21.7° 1008.7 hPa 4.2 m/s 0.0 mm 21.4° 1009.9 hPa 6.0 m/s
20:00 21.0° 1009.1 hPa 3.9 m/s 0.0 mm 22.7° 1007.9 hPa 4.9 m/s 1.0 mm 21.0° 1009.7 hPa 3.7 m/s 0.0 mm 20.7° 1008.7 hPa 3.5 m/s 0.0 mm 20.0° 1009.5 hPa 4.2 m/s
23:00 18.9° 1009.6 hPa 2.3 m/s 0.0 mm 19.3° 1008.4 hPa 3.2 m/s 1.0 mm 18.9° 1009.8 hPa 2.2 m/s 0.0 mm 17.8° 1009.4 hPa 1.5 m/s 0.0 mm 18.1° 1010.2 hPa 3.0 m/s
 05:17     21:23    Daglengte: 16:06 Woensdag 28 Jul
02:00 17.2° 1008.9 hPa 1.6 m/s 0.0 mm 15.7° 1007.7 hPa 1.7 m/s 1.0 mm 17.4° 1009.3 hPa 1.5 m/s 0.0 mm 16.7° 1009.0 hPa 1.6 m/s 0.0 mm 17.4° 1009.6 hPa 3.4 m/s
05:00 17.2° 1008.1 hPa 2.4 m/s 0.0 mm 17.6° 1007.6 hPa 3.5 m/s 6.4 mm 17.0° 1008.4 hPa 1.5 m/s 0.0 mm 16.3° 1008.2 hPa 1.9 m/s 0.0 mm 17.2° 1008.4 hPa 3.7 m/s
08:00 19.1° 1007.8 hPa 3.6 m/s 0.0 mm 18.1° 1006.8 hPa 2.8 m/s 20.9 mm 19.1° 1007.8 hPa 3.5 m/s 0.0 mm 20.0° 1007.9 hPa 3.0 m/s 0.0 mm 19.2° 1008.4 hPa 5.2 m/s
11:00 19.6° 1007.8 hPa 5.7 m/s 2.5 mm 20.2° 1006.5 hPa 6.5 m/s 21.6 mm 19.1° 1008.1 hPa 4.9 m/s 0.1 mm 20.6° 1008.2 hPa 4.5 m/s
14:00 21.3° 1007.0 hPa 5.7 m/s 2.7 mm 21.6° 1006.5 hPa 5.8 m/s 21.6 mm 21.4° 1006.9 hPa 5.4 m/s 0.0 mm 19.8° 1008.3 hPa 5.3 m/s
17:00 21.1° 1006.3 hPa 5.3 m/s 8.5 mm 22.7° 1006.0 hPa 5.5 m/s 21.6 mm 21.0° 1006.2 hPa 5.3 m/s 0.1 mm 20.9° 1007.7 hPa 6.6 m/s
20:00 19.5° 1005.5 hPa 4.2 m/s 7.9 mm 21.9° 1005.4 hPa 3.9 m/s 21.6 mm 18.6° 1004.9 hPa 5.6 m/s 1.4 mm 18.7° 1007.2 hPa 5.6 m/s
23:00 17.8° 1005.6 hPa 5.6 m/s 8.1 mm 17.8° 1005.6 hPa 3.1 m/s 22.5 mm 17.4° 1004.7 hPa 6.0 m/s 0.2 mm 17.3° 1007.0 hPa 5.1 m/s
 05:18     21:22    Daglengte: 16:04 Donderdag 29 Jul
02:00 17.5° 1004.9 hPa 5.7 m/s 8.8 mm 18.6° 1004.8 hPa 5.4 m/s 22.9 mm 16.0° 1004.0 hPa 5.5 m/s 1.1 mm 16.3° 1006.2 hPa 5.0 m/s
05:00 16.8° 1004.3 hPa 5.7 m/s 0.0 mm 17.7° 1004.4 hPa 4.9 m/s 23.0 mm 15.7° 1002.9 hPa 5.7 m/s 0.1 mm 16.1° 1004.6 hPa 5.8 m/s
08:00 17.0° 1003.5 hPa 6.5 m/s 8.8 mm 18.4° 1003.8 hPa 6.2 m/s 23.1 mm 15.8° 1001.9 hPa 6.5 m/s 1.7 mm 15.9° 1003.2 hPa 8.6 m/s
11:00 16.6° 1002.4 hPa 8.2 m/s 10.2 mm 19.0° 1003.3 hPa 8.7 m/s 24.4 mm 16.1° 1002.1 hPa 8.1 m/s 3.0 mm 17.1° 1003.4 hPa 10.6 m/s
14:00 16.6° 1002.5 hPa 8.9 m/s 10.6 mm 18.9° 1002.8 hPa 10.0 m/s 27.4 mm 16.0° 1002.4 hPa 8.7 m/s 2.2 mm 17.4° 1003.3 hPa 12.0 m/s
17:00 15.9° 1002.7 hPa 14.3 m/s 11.5 mm 15.9° 1002.7 hPa 14.3 m/s 11.5 mm
20:00 16.5° 1003.3 hPa 11.5 m/s 11.9 mm 16.5° 1003.3 hPa 11.5 m/s 11.9 mm
23:00 16.1° 1003.1 hPa 10.6 m/s 12.3 mm 16.1° 1003.1 hPa 10.6 m/s 12.3 mm
 05:20     21:20    Daglengte: 16:00 Vrijdag 30 Jul
02:00 15.8° 1001.5 hPa 11.3 m/s 14.2 mm 15.8° 1001.5 hPa 11.3 m/s 14.2 mm
05:00 15.9° 1001.0 hPa 9.4 m/s 15.5 mm 15.9° 1000.9 hPa 9.4 m/s 15.5 mm
08:00 16.7° 1002.0 hPa 8.6 m/s 15.6 mm 16.7° 1002.0 hPa 8.6 m/s 15.6 mm
11:00 19.5° 1002.9 hPa 10.0 m/s 16.0 mm 19.5° 1002.9 hPa 10.0 m/s 16.0 mm
14:00 20.0° 1003.1 hPa 10.3 m/s 16.5 mm 20.0° 1003.1 hPa 10.3 m/s 16.5 mm
17:00 20.8° 1003.9 hPa 10.1 m/s 16.7 mm 20.8° 1003.9 hPa 10.1 m/s 16.7 mm
20:00 18.1° 1004.5 hPa 8.9 m/s 16.7 mm 18.0° 1004.5 hPa 8.9 m/s 16.7 mm
23:00 16.2° 1005.0 hPa 7.7 m/s 16.7 mm 16.2° 1005.0 hPa 7.7 m/s 16.7 mm
 05:22     21:18    Daglengte: 15:56 Zaterdag 31 Jul
02:00 15.9° 1005.3 hPa 6.6 m/s 16.7 mm 15.9° 1005.3 hPa 6.6 m/s 16.7 mm
05:00 15.4° 1004.4 hPa 5.8 m/s 16.8 mm 15.4° 1004.4 hPa 5.8 m/s 16.8 mm
08:00 17.4° 1004.6 hPa 6.2 m/s 16.8 mm 17.4° 1004.6 hPa 6.2 m/s 16.8 mm
11:00 18.7° 1004.4 hPa 6.3 m/s 16.9 mm 18.7° 1004.4 hPa 6.3 m/s 16.9 mm
14:00 20.2° 1003.3 hPa 5.2 m/s 16.9 mm 20.2° 1003.3 hPa 5.2 m/s 16.9 mm
17:00 18.0° 1002.2 hPa 6.6 m/s 18.9 mm 18.0° 1002.2 hPa 6.6 m/s 18.9 mm
20:00 18.0° 1001.2 hPa 6.1 m/s 20.1 mm 18.0° 1001.2 hPa 6.1 m/s 20.1 mm
23:00 15.2° 1000.8 hPa 3.3 m/s 20.2 mm 15.2° 1000.8 hPa 3.3 m/s 20.2 mm
 05:24     21:16    Daglengte: 15:52 Zondag 01 Aug
02:00 14.8° 1000.5 hPa 3.9 m/s 21.6 mm 14.8° 1000.5 hPa 3.9 m/s 21.6 mm
05:00 13.6° 1000.8 hPa 4.2 m/s 21.7 mm 13.6° 1000.8 hPa 4.2 m/s 21.7 mm
08:00 15.0° 1002.1 hPa 5.5 m/s 21.7 mm 15.0° 1002.1 hPa 5.5 m/s 21.7 mm
11:00 18.2° 1002.5 hPa 6.9 m/s 21.7 mm 18.2° 1002.5 hPa 6.9 m/s 21.7 mm
14:00 19.1° 1002.9 hPa 7.3 m/s 21.9 mm 19.1° 1002.9 hPa 7.3 m/s 21.9 mm
17:00 18.8° 1003.0 hPa 6.3 m/s 22.3 mm 18.8° 1003.0 hPa 6.3 m/s 22.3 mm
20:00 17.3° 1003.2 hPa 6.1 m/s 22.4 mm 17.3° 1003.2 hPa 6.1 m/s 22.4 mm
23:00 14.3° 1004.0 hPa 5.3 m/s 22.4 mm 14.3° 1004.0 hPa 5.3 m/s 22.4 mm
 05:26     21:14    Daglengte: 15:48 Maandag 02 Aug
02:00 12.9° 1004.4 hPa 5.5 m/s 22.4 mm 12.9° 1004.4 hPa 5.5 m/s 22.4 mm
05:00 13.0° 1004.4 hPa 7.2 m/s 22.4 mm 13.0° 1004.4 hPa 7.2 m/s 22.4 mm
08:00 14.8° 1004.9 hPa 8.2 m/s 22.5 mm 14.8° 1004.9 hPa 8.2 m/s 22.5 mm
11:00 17.0° 1005.9 hPa 9.2 m/s 22.7 mm 17.0° 1005.9 hPa 9.2 m/s 22.7 mm
14:00 18.0° 1006.8 hPa 8.7 m/s 23.0 mm 18.0° 1006.8 hPa 8.7 m/s 23.0 mm
20:00 16.3° 1008.4 hPa 8.7 m/s 23.2 mm 16.3° 1008.4 hPa 8.7 m/s 23.2 mm
 05:27     21:12    Daglengte: 15:45 Dinsdag 03 Aug
02:00 13.6° 1010.5 hPa 6.4 m/s 23.3 mm 13.6° 1010.5 hPa 6.4 m/s 23.3 mm
08:00 15.5° 1011.1 hPa 6.5 m/s 23.4 mm 15.5° 1011.1 hPa 6.5 m/s 23.4 mm
14:00 18.4° 1011.3 hPa 7.2 m/s 24.0 mm 18.4° 1011.3 hPa 7.2 m/s 24.0 mm
20:00 17.4° 1010.8 hPa 5.7 m/s 25.3 mm 17.4° 1010.8 hPa 5.7 m/s 25.3 mm
 05:29     21:10    Daglengte: 15:41 Woensdag 04 Aug
02:00 14.4° 1011.6 hPa 4.2 m/s 25.3 mm 14.4° 1011.6 hPa 4.2 m/s 25.3 mm
08:00 17.5° 1009.4 hPa 8.9 m/s 25.3 mm 17.5° 1009.4 hPa 8.9 m/s 25.3 mm
14:00 20.4° 1007.5 hPa 9.6 m/s 25.6 mm 20.4° 1007.5 hPa 9.6 m/s 25.6 mm
20:00 17.1° 1005.4 hPa 8.4 m/s 28.2 mm 17.1° 1005.4 hPa 8.4 m/s 28.2 mm
 05:31     21:08    Daglengte: 15:37 Donderdag 05 Aug
02:00 16.0° 1003.9 hPa 7.8 m/s 30.4 mm 16.0° 1003.9 hPa 7.8 m/s 30.4 mm
08:00 16.8° 1002.4 hPa 9.1 m/s 32.0 mm 16.8° 1002.4 hPa 9.1 m/s 32.0 mm
14:00 19.9° 1009.6 hPa 4.4 m/s 0.8 mm
20:00 18.0° 1008.7 hPa 3.5 m/s 0.7 mm
 05:33     21:06    Daglengte: 15:33 Vrijdag 06 Aug
02:00 14.9° 1008.7 hPa 3.2 m/s 0.6 mm
08:00 16.1° 1008.1 hPa 3.4 m/s 0.6 mm
14:00 19.4° 1008.1 hPa 4.5 m/s 1.3 mm
20:00 17.8° 1007.9 hPa 3.8 m/s 0.8 mm
 05:35     21:04    Daglengte: 15:29 Zaterdag 07 Aug
02:00 15.0° 1008.5 hPa 2.9 m/s 0.4 mm
08:00 16.1° 1008.7 hPa 3.5 m/s 0.4 mm
14:00 19.6° 1009.0 hPa 4.4 m/s 0.9 mm
20:00 17.8° 1008.9 hPa 3.3 m/s 0.7 mm
 05:37     21:02    Daglengte: 15:25 Zondag 08 Aug
02:00 15.0° 1009.4 hPa 3.0 m/s 0.4 mm
08:00 15.9° 1009.3 hPa 3.3 m/s 0.7 mm
14:00 19.2° 1009.4 hPa 3.7 m/s 1.1 mm
20:00 17.6° 1009.4 hPa 3.1 m/s 1.4 mm
 05:38     20:59    Daglengte: 15:21 Maandag 09 Aug
02:00 15.0° 1010.2 hPa 3.0 m/s 1.7 mm
08:00 16.0° 1011.1 hPa 3.5 m/s 0.0 mm
14:00 19.9° 1012.3 hPa 4.7 m/s 0.6 mm
20:00 17.8° 1012.7 hPa 4.1 m/s 0.5 mm
 05:40     20:57    Daglengte: 15:17 Dinsdag 10 Aug
02:00 15.1° 1013.4 hPa 3.6 m/s 0.3 mm
08:00 16.3° 1013.1 hPa 3.4 m/s 0.5 mm
14:00 20.2° 1013.5 hPa 4.9 m/s 0.7 mm
FMI Hirlam - 7.5 km EWN WRFDA - 12 km DWD ICON - 7 km GFS - 25 km Basiskaart






























































Updatetijd (Europe/Amsterdam) Resolutie Lengte Stap
FMI Hirlam 14:00, 20:00, 02:00, 08:00 7.5 km 49h 1h
EWN WRFDA 10:30, 16:30, 22:30, 04:30 12 km 73h 1h
DWD ICON 11:45, 17:45, 23:45, 05:45 7 km 75h 1h
GFS 14:15, 20:15, 02:15, 08:15 25 km 237h 3h
30+ mm
25-30 mm
20-25 mm
15-20 mm
10-15 mm
6-10 mm
4-6 mm
2-4 mm
1-2 mm
0.5-1 mm
0.2-0.5 mm
0.1-0.2 mm
30+ mm
25-30 mm
20-25 mm
15-20 mm
10-15 mm
6-10 mm
4-6 mm
2-4 mm
1-2 mm
0.5-1 mm
0.2-0.5 mm
0.1-0.2 mm
Sneeuwval
Natte sneeuw
Hagel
Vorst
30+ mm
25-30 mm
20-25 mm
15-20 mm
10-15 mm
6-10 mm
4-6 mm
2-4 mm
1-2 mm
0.5-1 mm
0.2-0.5 mm
0.1-0.2 mm
Sneeuwval
Natte sneeuw
Hagel
Vorst
Onweer
50 mm
40 mm
30 mm
26 mm
22 mm
18 mm
14 mm
10 mm
9 mm
8 mm
7 mm
6 mm
5 mm
4.5 mm
4 mm
3.5 mm
3 mm
2.5 mm
2 mm
1.5 mm
1 mm
0.8 mm
0.6 mm
0.4 mm
0.2 mm
0.05 mm
35°
30°
25°